Weather History for South Pass, WY

Change the Weather History Date:

Friday, March 14, 2014

  Actual Average (KLND) Record (KLND)
Temperature  
Mean Temperature 30 °F 35 °F  
Max Temperature 35 °F 47 °F 67 °F (1994)
Min Temperature 26 °F 23 °F -15 °F (1906)
Degree Days  
Heating Degree Days 34 30  
Month to date heating degree days 452  
Since 1 July heating degree days 6156  
Cooling Degree Days 0 0  
Month to date cooling degree days 0  
Year to date cooling degree days 0  
Moisture  
Dew Point 7 °F    
Average Humidity 39    
Maximum Humidity 86    
Minimum Humidity 11    
Precipitation  
Precipitation 0.00 in 0.04 in 0.52 in (1898)
Month to date precipitation 0.42  
Year to date precipitation 1.41  
Snow  
Snow 0.00 in 0.60 in - ()
Month to date snowfall 6.2  
Since 1 July snowfall 59.8  
Snow Depth -    
Sea Level Pressure  
Sea Level Pressure 29.90 in    
Wind  
Wind Speed 8 mph (WSW)    
Max Wind Speed 24 mph    
Max Gust Speed 39 mph    
Visibility 10 miles    
Events      
T = Trace of Precipitation, MM = Missing Value Source: NWS Daily Summary

Daily Weather History Graph

Daily Weather History Graph

Search for Another Location

Airport:

Trip Planner

Search our weather history database for the weather conditions in past years. The results will help you decide how hot, cold, wet, or windy it might be!

Date:

Astronomy

Mar. 14, 2014 Rise Set
Actual Time 7:28 AM MDT 7:20 PM MDT
Civil Twilight 7:00 AM MDT 7:48 PM MDT
Nautical Twilight 6:27 AM MDT 8:21 PM MDT
Astronomical Twilight 5:54 AM MDT 8:54 PM MDT
Moon 5:44 PM MDT (3/14) 6:12 AM MDT (3/14)
Length of Visible Light 12h 47m
Length of Day
11h 51m
Waxing Gibbous, 96% of the Moon is Illuminated
Mar 14
Waxing Gibbous
Mar 16
Full
Mar 23
Last Quarter
Mar 30
New
Apr 7
First Quarter

Hourly Weather History & Observations

Time (MDT) Temp. Windchill Dew Point Humidity Pressure Visibility Wind Dir Wind Speed Gust Speed Precip Events Conditions
12:15 AM 32.0 °F - 8.6 °F 38% 29.96 in 10.0 mi Calm Calm - N/A   Clear
12:35 AM 32.0 °F - 8.6 °F 38% 29.96 in 10.0 mi Calm Calm - N/A   Clear
12:55 AM 32.0 °F - 8.6 °F 38% 29.96 in 10.0 mi Calm Calm - N/A   Clear
1:15 AM 28.4 °F 24.6 °F 8.6 °F 43% 29.96 in 10.0 mi WSW 3.5 mph - N/A   Clear
1:35 AM 30.2 °F 25.4 °F 8.6 °F 40% - 10.0 mi SW 4.6 mph - N/A   Clear
1:55 AM 30.2 °F 25.4 °F 6.8 °F 37% - 10.0 mi SW 4.6 mph - N/A   Clear
2:15 AM 30.2 °F 25.4 °F 5.0 °F 34% - 10.0 mi WSW 4.6 mph - N/A   Clear
2:35 AM 30.2 °F 26.7 °F 5.0 °F 34% - 10.0 mi SW 3.5 mph - N/A   Clear
2:55 AM 30.2 °F - 5.0 °F 34% - 10.0 mi Calm Calm - N/A   Clear
3:15 AM 30.2 °F - 3.2 °F 32% - 10.0 mi Calm Calm - N/A   Clear
3:35 AM 30.2 °F - 3.2 °F 32% - 10.0 mi Calm Calm - N/A   Clear
3:55 AM 30.2 °F - 3.2 °F 32% - 10.0 mi Calm Calm - N/A   Clear
4:15 AM 30.2 °F 25.4 °F 3.2 °F 32% - 10.0 mi WSW 4.6 mph - N/A   Clear
4:35 AM 30.2 °F 24.3 °F 3.2 °F 32% - 10.0 mi WSW 5.8 mph - N/A   Clear
4:55 AM 30.2 °F 25.4 °F -4.0 °F 23% - 10.0 mi West 4.6 mph - N/A   Clear
5:15 AM 28.4 °F 18.5 °F -5.8 °F 23% - 10.0 mi WSW 11.5 mph - N/A   Clear
5:35 AM 30.2 °F 23.4 °F -5.8 °F 21% - 10.0 mi West 6.9 mph - N/A   Clear
5:55 AM 28.4 °F 19.1 °F -5.8 °F 23% - 10.0 mi West 10.4 mph - N/A   Clear
6:15 AM 30.2 °F 21.9 °F -5.8 °F 21% - 10.0 mi West 9.2 mph - N/A   Clear
6:35 AM 30.2 °F 23.4 °F -9.4 °F 18% - 10.0 mi West 6.9 mph - N/A   Clear
6:55 AM 30.2 °F 22.6 °F -11.2 °F 16% - 10.0 mi West 8.1 mph - N/A   Clear
7:15 AM 30.2 °F 23.4 °F -13.0 °F 15% - 10.0 mi WSW 6.9 mph - N/A   Clear
7:35 AM 30.2 °F 25.4 °F -16.6 °F 13% - 10.0 mi West 4.6 mph - N/A   Clear
7:55 AM 32.0 °F 27.5 °F -16.6 °F 12% - 10.0 mi North 4.6 mph - N/A   Clear
8:15 AM 32.0 °F - -18.4 °F 11% - 10.0 mi Calm Calm - N/A   Clear
8:35 AM 32.0 °F 24.2 °F -16.6 °F 12% 29.92 in 10.0 mi West 9.2 mph - N/A   Clear
8:55 AM 32.0 °F 20.5 °F -11.2 °F 15% 29.91 in 10.0 mi West 18.4 mph 23.0 mph N/A   Clear
9:15 AM 32.0 °F 20.1 °F -5.8 °F 20% 29.92 in 10.0 mi WSW 19.6 mph - N/A   Clear
9:35 AM 30.2 °F 19.3 °F -2.2 °F 25% 29.94 in 10.0 mi WSW 15.0 mph - N/A   Clear
9:55 AM 26.6 °F 16.8 °F 3.2 °F 37% 29.94 in 10.0 mi WSW 10.4 mph - N/A   Clear
10:15 AM 26.6 °F 17.5 °F 3.2 °F 37% 29.94 in 10.0 mi SW 9.2 mph - N/A   Clear
10:35 AM 30.2 °F 21.9 °F 1.4 °F 29% 29.93 in 10.0 mi SW 9.2 mph - N/A   Clear
10:55 AM 33.8 °F 22.2 °F -2.2 °F 22% 29.92 in 10.0 mi West 20.7 mph 26.5 mph N/A   Clear
11:15 AM 33.8 °F 21.6 °F -4.0 °F 20% 29.92 in 10.0 mi WSW 23.0 mph 28.8 mph N/A   Clear
11:35 AM 35.6 °F 23.7 °F -2.2 °F 20% 29.92 in 10.0 mi WSW 24.2 mph 31.1 mph N/A   Clear
11:55 AM 33.8 °F 21.3 °F 5.0 °F 30% 29.92 in 10.0 mi WSW 24.2 mph 31.1 mph N/A   Clear
12:15 PM 33.8 °F 21.3 °F 5.0 °F 30% 29.91 in 10.0 mi WSW 24.2 mph - N/A   Clear
12:35 PM 32.0 °F 21.2 °F 6.8 °F 35% 29.92 in 10.0 mi West 16.1 mph 28.8 mph N/A   Clear
12:55 PM 33.8 °F 27.7 °F 8.6 °F 35% 29.94 in 10.0 mi WSW 6.9 mph 16.1 mph N/A   Clear
1:15 PM 32.0 °F 21.6 °F 10.4 °F 41% 29.92 in 10.0 mi WSW 15.0 mph 23.0 mph N/A   Clear
1:35 PM 32.0 °F 22.1 °F 12.2 °F 44% 29.93 in 10.0 mi SW 13.8 mph 21.9 mph N/A   Scattered Clouds
1:55 PM 30.2 °F 19.3 °F 15.8 °F 55% 29.92 in 10.0 mi SW 15.0 mph - N/A   Clear
2:15 PM 32.0 °F 21.6 °F 14.0 °F 48% 29.90 in 10.0 mi SW 15.0 mph 21.9 mph N/A   Clear
2:35 PM 32.0 °F 20.8 °F 14.0 °F 48% 29.89 in 10.0 mi WSW 17.3 mph 26.5 mph N/A   Clear
2:55 PM 32.0 °F 23.0 °F 12.2 °F 44% 29.89 in 10.0 mi WSW 11.5 mph 23.0 mph N/A   Clear
3:15 PM 35.6 °F 25.9 °F 6.8 °F 30% 29.89 in 10.0 mi West 16.1 mph 23.0 mph N/A   Clear
3:35 PM 35.6 °F 29.2 °F 5.0 °F 28% 29.89 in 10.0 mi West 8.1 mph - N/A   Clear
3:55 PM 35.6 °F 29.2 °F 6.8 °F 30% 29.89 in 10.0 mi West 8.1 mph 17.3 mph N/A   Clear
4:15 PM 35.6 °F 29.2 °F 5.0 °F 28% 29.88 in 10.0 mi NW 8.1 mph 19.6 mph N/A   Clear
4:35 PM 35.6 °F 27.1 °F 8.6 °F 33% 29.89 in 10.0 mi WSW 12.7 mph 20.7 mph N/A   Clear
4:55 PM 35.6 °F 26.2 °F 8.6 °F 33% 29.89 in 10.0 mi WSW 15.0 mph 26.5 mph N/A   Clear
5:15 PM 35.6 °F 27.5 °F 10.4 °F 35% 29.88 in 10.0 mi WSW 11.5 mph - N/A   Clear
5:35 PM 33.8 °F 24.3 °F 12.2 °F 41% 29.87 in 10.0 mi WSW 13.8 mph 18.4 mph N/A   Scattered Clouds
5:55 PM 33.8 °F 23.2 °F 12.2 °F 41% 29.86 in 10.0 mi West 17.3 mph 24.2 mph N/A   Clear
6:15 PM 35.6 °F 25.5 °F 12.2 °F 38% 29.85 in 10.0 mi West 17.3 mph 27.6 mph N/A   Clear
6:35 PM 33.8 °F 22.2 °F 14.0 °F 44% 29.85 in 5.0 mi West 20.7 mph 34.5 mph N/A   Haze
6:55 PM 33.8 °F 22.5 °F 15.8 °F 48% 29.85 in 7.0 mi West 19.6 mph 39.1 mph N/A   Clear
7:15 PM 33.8 °F 23.2 °F 17.6 °F 52% 29.85 in 10.0 mi West 17.3 mph 25.3 mph N/A   Clear
7:35 PM 32.0 °F 18.9 °F 19.4 °F 60% 29.86 in 7.0 mi West 24.2 mph 34.5 mph N/A   Clear
7:55 PM 32.0 °F 19.8 °F 19.4 °F 60% 29.86 in 7.0 mi WSW 20.7 mph 32.2 mph N/A   Clear
8:15 PM 32.0 °F 19.5 °F 19.4 °F 60% 29.86 in 10.0 mi WSW 21.9 mph 31.1 mph N/A   Scattered Clouds
8:35 PM 32.0 °F 19.5 °F 19.4 °F 60% 29.87 in 7.0 mi West 21.9 mph 35.7 mph N/A   Mostly Cloudy
8:55 PM 32.0 °F 23.0 °F 19.4 °F 60% 29.90 in 10.0 mi West 11.5 mph 20.7 mph N/A   Mostly Cloudy
9:15 PM 32.0 °F 23.0 °F 21.2 °F 64% 29.90 in 10.0 mi West 11.5 mph 16.1 mph N/A   Mostly Cloudy
9:35 PM 32.0 °F 23.6 °F 23.0 °F 69% 29.90 in 10.0 mi WNW 10.4 mph 17.3 mph N/A   Overcast
9:55 PM 32.0 °F 23.6 °F 24.8 °F 75% 29.90 in 10.0 mi West 10.4 mph 20.7 mph N/A   Overcast
10:15 PM 32.0 °F 24.8 °F 24.8 °F 75% 29.89 in 10.0 mi West 8.1 mph - N/A   Overcast
10:35 PM 32.0 °F 24.8 °F 24.8 °F 75% 29.89 in 10.0 mi West 8.1 mph - N/A   Overcast
10:55 PM 30.2 °F 25.4 °F 24.8 °F 80% 29.88 in 10.0 mi West 4.6 mph - N/A   Overcast
11:15 PM 30.2 °F 23.4 °F 24.8 °F 80% 29.89 in 10.0 mi WNW 6.9 mph - N/A   Overcast
11:35 PM 32.0 °F 22.1 °F 24.8 °F 75% 29.88 in 10.0 mi West 13.8 mph 21.9 mph N/A   Mostly Cloudy
11:55 PM 30.2 °F 18.1 °F 26.6 °F 86% 29.86 in 5.0 mi West 18.4 mph 25.3 mph N/A   Haze